FW6321 Weather Reports


time (UTC)temp
C
wind
direction
speed
KPH
gust
KPH
rain 1hr
cm
rain 24hr
cm
rain mn
cm
humidity
%
barometer
mb
20260906185338 18 67 3.2 4.8 0.00 0.00 0.00 78 1021.3
20260906184841 19 67 3.2 4.8 0.00 0.00 0.00 78 1021.3
20260906184338 19 83 3.2 4.8 0.00 0.00 0.00 77 1021.4
20260906184320 19 103 1.6 4.8 0.00 0.00 0.00 77 1021.4
20260906183340 20 103 1.6 3.2 0.00 0.00 0.00 76 1021.5
20260906182838 20 103 1.6 3.2 0.00 0.00 0.00 75 1021.4
20260906182338 20 103 1.6 3.2 0.00 0.00 0.00 74 1021.4
20260906181839 20 103 1.6 3.2 0.00 0.00 0.00 73 1021.3
20260906181335 20 103 1.6 3.2 0.00 0.00 0.00 72 1021.3
20260906180834 20 103 1.6 4.8 0.00 0.00 0.00 71 1021.3
20260906180338 21 102 1.6 4.8 0.00 0.00 0.00 71 1021.5
20260906175834 21 110 1.6 8.0 0.00 0.00 0.00 70 1021.5
20260906175336 21 125 1.6 8.0 0.00 0.00 0.00 69 1021.6
20260906174833 21 102 1.6 4.8 0.00 0.00 0.00 69 1021.6
20260906174332 21 86 1.6 4.8 0.00 0.00 0.00 68 1021.7
20260906174302 21 79 1.6 6.4 0.00 0.00 0.00 68 1021.8
20260906173746 21 116 1.6 4.8 0.00 0.00 0.00 68 1021.9
20260906173532 21 112 1.6 6.4 0.00 0.00 0.00 69 1021.9
20260906172330 21 101 1.6 4.8 0.00 0.00 0.00 68 1021.9
20260906171829 21 83 1.6 4.8 0.00 0.00 0.00 67 1021.9
20260906171819 22 76 3.2 6.4 0.00 0.00 0.00 66 1022.1
20260906171309 22 99 3.2 6.4 0.00 0.00 0.00 64 1022.1
20260906170330 22 77 3.2 8.0 0.00 0.00 0.00 63 1022.1
20260906165830 22 96 3.2 8.0 0.00 0.00 0.00 61 1022.2
20260906165813 22 106 3.2 8.0 0.00 0.00 0.00 60 1022.2
20260906164823 23 116 1.6 8.0 0.00 0.00 0.00 60 1022.3
20260906164320 23 156 3.2 9.7 0.00 0.00 0.00 59 1022.4
20260906163822 23 106 4.8 9.7 0.00 0.00 0.00 59 1022.5
20260906163320 23 121 4.8 11.3 0.00 0.00 0.00 59 1022.5
20260906162821 23 171 3.2 11.3 0.00 0.00 0.00 58 1022.6
20260906162321 23 134 3.2 9.7 0.00 0.00 0.00 59 1022.6
20260906161822 23 100 3.2 9.7 0.00 0.00 0.00 57 1022.6
20260906161320 23 104 3.2 9.7 0.00 0.00 0.00 59 1022.5
20260906160818 23 73 4.8 9.7 0.00 0.00 0.00 60 1022.6
20260906160316 23 98 3.2 8.0 0.00 0.00 0.00 58 1022.6
20260906155818 23 169 3.2 8.0 0.00 0.00 0.00 58 1022.7
20260906155320 23 129 3.2 9.7 0.00 0.00 0.00 58 1022.8
20260906154815 23 180 3.2 9.7 0.00 0.00 0.00 57 1022.8
20260906154317 23 168 3.2 11.3 0.00 0.00 0.00 58 1022.8
20260906153815 23 131 4.8 11.3 0.00 0.00 0.00 58 1022.7
20260906153314 23 128 4.8 12.9 0.00 0.00 0.00 58 1022.8
20260906152814 23 154 4.8 12.9 0.00 0.00 0.00 59 1022.8
20260906152316 23 204 6.4 14.5 0.00 0.00 0.00 59 1022.7
20260906151815 23 43 6.4 14.5 0.00 0.00 0.00 60 1022.8
20260906151314 23 49 4.8 12.9 0.00 0.00 0.00 58 1022.9
20260906151304 23 99 6.4 14.5 0.00 0.00 0.00 58 1023.0
20260906150312 22 77 6.4 14.5 0.00 0.00 0.00 58 1023.1
20260906145813 23 86 4.8 14.5 0.00 0.00 0.00 59 1023.1
20260906145314 23 89 4.8 12.9 0.00 0.00 0.00 60 1023.1
20260906145250 23 123 3.2 11.3 0.00 0.00 0.00 57 1023.3
20260906145019 23 60 4.8 12.9 0.00 0.00 0.00 57 1023.2
20260906143813 23 136 3.2 11.3 0.00 0.00 0.00 58 1023.3
20260906143312 23 151 4.8 12.9 0.00 0.00 0.00 56 1023.3
20260906142813 23 81 8.0 14.5 0.00 0.00 0.00 58 1023.4
20260906142310 23 124 6.4 14.5 0.00 0.00 0.00 56 1023.4
20260906141814 23 64 4.8 12.9 0.00 0.00 0.00 57 1023.4
20260906141314 23 162 4.8 11.3 0.00 0.00 0.00 59 1023.4
20260906141308 22 131 6.4 12.9 0.00 0.00 0.00 60 1023.5
20260906140311 22 67 4.8 12.9 0.00 0.00 0.00 60 1023.6
20260906135811 23 66 4.8 14.5 0.00 0.00 0.00 58 1023.6
20260906135753 23 100 4.8 14.5 0.00 0.00 0.00 58 1023.5
20260906134809 22 78 4.8 12.9 0.00 0.00 0.00 61 1023.7
20260906134754 22 123 6.4 16.1 0.00 0.00 0.00 58 1023.7
20260906133812 22 161 6.4 16.1 0.00 0.00 0.00 59 1023.6
20260906133310 22 81 4.8 12.9 0.00 0.00 0.00 59 1023.7
20260906133258 22 189 4.8 14.5 0.00 0.00 0.00 60 1023.9
20260906132749 22 89 6.4 14.5 0.00 0.00 0.00 58 1023.9
20260906132306 23 154 6.4 17.7 0.00 0.00 0.00 60 1024.0
20260906131308 23 102 8.0 17.7 0.00 0.00 0.00 59 1024.1
20260906130806 23 124 8.0 17.7 0.00 0.00 0.00 58 1024.1
20260906130306 22 126 4.8 12.9 0.00 0.00 0.00 59 1024.1
20260906125805 23 91 4.8 11.3 0.00 0.00 0.00 60 1024.2
20260906125752 22 133 4.8 16.1 0.00 0.00 0.00 59 1024.3
20260906125306 22 95 4.8 16.1 0.00 0.00 0.00 63 1024.3
20260906124304 22 125 4.8 12.9 0.00 0.00 0.00 60 1024.3
20260906123804 21 75 6.4 14.5 0.00 0.00 0.00 62 1024.3
20260906123306 21 83 6.4 14.5 0.00 0.00 0.00 61 1024.4
20260906122803 21 114 6.4 14.5 0.00 0.00 0.00 60 1024.4
20260906122313 22 112 6.4 14.5 0.00 0.00 0.00 60 1024.5
20260906122306 21 104 4.8 14.5 0.00 0.00 0.00 62 1024.5
20260906121307 22 175 6.4 14.5 0.00 0.00 0.00 59 1024.6
20260906120803 22 119 4.8 12.9 0.00 0.00 0.00 59 1024.7
20260906120305 22 128 6.4 17.7 0.00 0.00 0.00 60 1024.7
20260906115803 22 142 8.0 17.7 0.00 0.00 0.00 60 1024.9
20260906115308 22 141 8.0 19.3 0.00 0.00 0.00 60 1024.9
20260906115251 22 109 6.4 19.3 0.00 0.00 0.00 60 1024.9
20260906114311 22 67 6.4 19.3 0.00 0.00 0.00 60 1024.9
20260906113804 22 116 6.4 19.3 0.00 0.00 0.00 63 1025.0
20260906113307 22 154 6.4 16.1 0.00 0.00 0.00 59 1025.0
20260906112804 22 147 6.4 16.1 0.00 0.00 0.00 62 1025.1
20260906112307 22 153 6.4 16.1 0.00 0.00 0.00 63 1025.1
20260906111808 22 162 6.4 14.5 0.00 0.00 0.00 61 1025.3
20260906111307 21 115 8.0 14.5 0.00 0.00 0.00 62 1025.3
20260906110807 22 178 8.0 19.3 0.00 0.00 0.00 59 1025.3
20260906110316 22 183 8.0 19.3 0.00 0.00 0.00 60 1025.3
20260906105803 21 171 6.4 16.1 0.00 0.00 0.00 65 1025.4
20260906105744 21 119 4.8 16.1 0.00 0.00 0.00 62 1025.4
20260906104804 21 157 6.4 14.5 0.00 0.00 0.00 65 1025.5
20260906104307 20 105 6.4 16.1 0.00 0.00 0.00 67 1025.6
20260906103804 21 103 4.8 16.1 0.00 0.00 0.00 65 1025.6
20260906103749 21 178 4.8 14.5 0.00 0.00 0.00 67 1025.8
20260906102808 21 133 6.4 12.9 0.00 0.00 0.00 65 1025.9
20260906102306 21 110 6.4 14.5 0.00 0.00 0.00 66 1026.0
20260906101806 21 90 6.4 14.5 0.00 0.00 0.00 66 1026.0
20260906101309 21 112 6.4 14.5 0.00 0.00 0.00 69 1026.1
20260906100807 20 91 6.4 14.5 0.00 0.00 0.00 67 1026.2
20260906100305 20 158 6.4 14.5 0.00 0.00 0.00 69 1026.3
20260906095809 20 75 4.8 12.9 0.00 0.00 0.00 70 1026.5
20260906095740 20 116 4.8 11.3 0.00 0.00 0.00 71 1026.4
20260906094804 20 172 6.4 16.1 0.00 0.00 0.00 71 1026.4
20260906094304 20 114 6.4 17.7 0.00 0.00 0.00 70 1026.4
20260906094250 20 161 8.0 19.3 0.00 0.00 0.00 70 1026.4
20260906093305 20 100 6.4 19.3 0.00 0.00 0.00 72 1026.5
20260906092802 20 191 4.8 17.7 0.00 0.00 0.00 70 1026.5
20260906092306 20 98 4.8 16.1 0.00 0.00 0.00 71 1026.6
20260906091804 20 140 6.4 16.1 0.00 0.00 0.00 72 1026.6
20260906091305 20 171 6.4 14.5 0.00 0.00 0.00 71 1026.6
20260906090803 20 121 6.4 14.5 0.00 0.00 0.00 74 1026.8
20260906090308 20 124 4.8 14.5 0.00 0.00 0.00 73 1026.8
20260906085804 20 110 3.2 11.3 0.00 0.00 0.00 73 1026.9
20260906085307 19 150 3.2 11.3 0.00 0.00 0.00 74 1026.8
20260906085253 19 165 3.2 11.3 0.00 0.00 0.00 75 1026.9
20260906084303 19 136 3.2 11.3 0.00 0.00 0.00 75 1026.9
20260906083806 18 124 3.2 12.9 0.00 0.00 0.00 76 1026.9
20260906083725 18 158 4.8 11.3 0.00 0.00 0.00 77 1026.9
20260906083504 18 152 4.8 12.9 0.00 0.00 0.00 76 1026.9
20260906082306 18 164 4.8 11.3 0.00 0.00 0.00 77 1026.9
20260906081805 18 119 4.8 11.3 0.00 0.00 0.00 78 1026.8
20260906081306 17 157 4.8 11.3 0.00 0.00 0.00 79 1026.7
20260906080803 17 139 4.8 16.1 0.00 0.00 0.00 79 1026.8
20260906080306 17 164 4.8 16.1 0.00 0.00 0.00 79 1026.7
20260906075804 17 129 3.2 9.7 0.00 0.00 0.00 82 1026.7
20260906075306 17 140 4.8 12.9 0.00 0.00 0.00 83 1026.8
20260906075247 16 146 4.8 14.5 0.00 0.00 0.00 82 1027.0
20260906074302 16 113 4.8 14.5 0.00 0.00 0.00 84 1027.1
20260906073803 16 171 4.8 9.7 0.00 0.00 0.00 86 1027.0
20260906073302 16 155 3.2 8.0 0.00 0.00 0.00 88 1026.9
20260906072806 16 139 3.2 9.7 0.00 0.00 0.00 89 1026.9
20260906072306 15 131 3.2 9.7 0.00 0.00 0.00 91 1027.0
20260906071802 15 143 3.2 9.7 0.00 0.00 0.00 92 1027.0
20260906071743 15 146 3.2 9.7 0.00 0.00 0.00 93 1026.9
20260906071256 15 156 1.6 6.4 0.00 0.00 0.00 94 1026.9
20260906070739 14 148 1.6 3.2 0.00 0.00 0.00 95 1027.0
20260906065802 14 152 0.0 3.2 0.00 0.00 0.00 96 1027.1
20260906065305 13 152 1.6 6.4 0.00 0.00 0.00 96 1027.0
20260906064804 13 154 0.0 6.4 0.00 0.00 0.00 96 1027.1
20260906064304 13 158 0.0 4.8 0.00 0.00 0.00 96 1027.0
20260906064255 13 158 3.2 6.4 0.00 0.00 0.00 96 1027.0
20260906063743 13 156 1.6 6.4 0.00 0.00 0.00 96 1027.0
20260906062804 13 166 1.6 6.4 0.00 0.00 0.00 96 1026.9
20260906062305 13 143 1.6 6.4 0.00 0.00 0.00 96 1026.9
20260906061804 13 164 1.6 6.4 0.00 0.00 0.00 96 1026.8
20260906061306 13 130 1.6 6.4 0.00 0.00 0.00 97 1026.8
20260906060804 13 129 1.6 6.4 0.00 0.00 0.00 97 1026.7
20260906060304 12 163 1.6 6.4 0.00 0.00 0.00 97 1026.8
20260906055804 12 171 3.2 8.0 0.00 0.00 0.00 97 1026.7
20260906055306 12 162 3.2 8.0 0.00 0.00 0.00 97 1026.7
20260906054802 12 165 1.6 4.8 0.00 0.00 0.00 97 1026.8
20260906054306 12 158 0.0 3.2 0.00 0.00 0.00 97 1026.8
20260906053805 11 158 0.0 1.6 0.00 0.00 0.00 97 1026.7
20260906053304 11 158 0.0 3.2 0.00 0.00 0.00 97 1026.6
20260906052803 11 158 1.6 4.8 0.00 0.00 0.00 96 1026.8
20260906052306 11 158 1.6 6.4 0.00 0.00 0.00 96 1026.8
20260906051803 11 167 3.2 6.4 0.00 0.00 0.00 96 1026.8
20260906051306 11 164 1.6 4.8 0.00 0.00 0.00 96 1026.8
20260906051255 11 154 1.6 4.8 0.00 0.00 0.00 96 1026.8
20260906050317 11 154 1.6 8.0 0.00 0.00 0.00 96 1026.7
20260906045806 11 175 3.2 8.0 0.00 0.00 0.00 96 1026.6
20260906045306 11 166 1.6 6.4 0.00 0.00 0.00 96 1026.6
20260906045239 11 170 0.0 3.2 0.00 0.00 0.00 96 1026.6
20260906045007 11 158 1.6 6.4 0.00 0.00 0.00 96 1026.6
20260906044243 11 170 0.0 1.6 0.00 0.00 0.00 96 1026.6
20260906043306 11 170 0.0 3.2 0.00 0.00 0.00 96 1026.8
20260906042804 11 170 0.0 3.2 0.00 0.00 0.00 96 1026.8
20260906042302 11 170 1.6 4.8 0.00 0.00 0.00 96 1026.8
20260906041806 11 175 0.0 4.8 0.00 0.00 0.00 96 1026.8
20260906041304 11 163 0.0 1.6 0.00 0.00 0.00 96 1026.8
20260906040802 11 163 0.0 1.6 0.00 0.00 0.00 96 1026.9
20260906040302 11 164 1.6 3.2 0.00 0.00 0.00 96 1026.9
20260906035802 11 164 1.6 4.8 0.00 0.00 0.00 96 1027.0
20260906035306 11 165 1.6 4.8 0.00 0.00 0.00 96 1027.0
20260906034802 11 165 1.6 4.8 0.00 0.00 0.00 96 1026.9
20260906034750 11 165 1.6 4.8 0.00 0.00 0.00 96 1027.1
20260906033806 11 165 1.6 6.4 0.00 0.00 0.00 95 1027.1
20260906033747 11 164 1.6 6.4 0.00 0.00 0.00 96 1027.1
20260906032805 11 170 1.6 4.8 0.00 0.00 0.00 96 1027.2
20260906032306 11 170 3.2 4.8 0.00 0.00 0.00 96 1027.3
20260906031805 11 175 3.2 4.8 0.00 0.00 0.00 96 1027.2
20260906031302 11 175 1.6 4.8 0.00 0.00 0.00 95 1027.1
20260906030803 11 175 1.6 4.8 0.00 0.00 0.00 95 1027.2
20260906030304 11 175 0.0 1.6 0.00 0.00 0.00 95 1026.9
20260906030249 11 175 0.0 1.6 0.00 0.00 0.00 95 1026.9
20260906025306 11 175 0.0 1.6 0.00 0.00 0.00 95 1027.1
20260906024804 11 175 0.0 1.6 0.00 0.00 0.00 95 1027.2
20260906024305 11 175 0.0 1.6 0.00 0.00 0.00 95 1027.2
20260906024243 12 175 0.0 1.6 0.00 0.00 0.00 95 1027.3
20260906023304 12 175 0.0 1.6 0.00 0.00 0.00 96 1027.4
20260906022805 11 176 0.0 1.6 0.00 0.00 0.00 95 1027.5
20260906022306 11 175 0.0 1.6 0.00 0.00 0.00 95 1027.4
20260906021802 12 175 1.6 3.2 0.00 0.00 0.00 95 1027.6
20260906021302 12 175 1.6 4.8 0.00 0.00 0.00 95 1027.6
20260906020801 12 187 1.6 4.8 0.00 0.00 0.00 95 1027.6
20260906020302 12 179 1.6 6.4 0.00 0.00 0.00 95 1027.9
20260906015802 12 167 1.6 6.4 0.00 0.00 0.00 95 1027.8
20260906015305 12 187 1.6 4.8 0.00 0.00 0.00 95 1027.7
20260906014802 12 175 1.6 4.8 0.00 0.00 0.00 95 1027.7
20260906014303 12 175 0.0 3.2 0.00 0.00 0.00 95 1027.5
20260906013805 12 175 1.6 3.2 0.00 0.00 0.00 95 1027.5
20260906013744 12 174 0.0 3.2 0.00 0.00 0.00 95 1027.3
20260906013249 12 175 0.0 3.2 0.00 0.00 0.00 95 1027.3
20260906012306 12 175 0.0 3.2 0.00 0.00 0.00 95 1027.3
20260906011802 12 175 1.6 3.2 0.00 0.00 0.00 95 1027.2
20260906011305 12 175 1.6 3.2 0.00 0.00 0.00 94 1027.3
20260906010802 12 175 0.0 1.6 0.00 0.00 0.00 95 1027.3
20260906010721 12 175 0.0 1.6 0.00 0.00 0.00 95 1027.3
20260906005803 12 175 0.0 1.6 0.00 0.00 0.00 94 1027.4
20260906005306 12 175 0.0 4.8 0.00 0.00 0.00 94 1027.5
20260906004803 12 175 0.0 4.8 0.00 0.00 0.00 94 1027.5
20260906004305 12 170 0.0 1.6 0.00 0.00 0.00 94 1027.5
20260906003803 12 170 1.6 4.8 0.00 0.00 0.00 94 1027.4
20260906003723 12 170 1.6 4.8 0.00 0.00 0.00 94 1027.4
20260906002803 12 160 1.6 4.8 0.00 0.00 0.00 94 1027.5
20260906002306 12 159 1.6 6.4 0.00 0.00 0.00 94 1027.4
20260906001805 12 171 0.0 6.4 0.00 0.00 0.00 94 1027.4
20260906001745 12 203 1.6 3.2 0.00 0.00 0.00 94 1027.4
20260906000803 12 203 1.6 3.2 0.00 0.00 0.00 94 1027.4
20260906000303 12 203 0.0 1.6 0.00 0.00 0.00 94 1027.3
20260905235803 12 203 0.0 3.2 0.00 0.00 0.00 94 1027.3
20260905235306 12 203 1.6 3.2 0.00 0.00 0.00 93 1027.4
20260905234804 12 203 0.0 3.2 0.00 0.00 0.00 93 1027.3
20260905234306 12 203 0.0 1.6 0.00 0.00 0.00 93 1027.3
20260905234241 12 203 0.0 1.6 0.00 0.00 0.00 93 1027.2
20260905233303 12 202 0.0 1.6 0.00 0.00 0.00 93 1027.2
20260905232803 12 203 0.0 1.6 0.00 0.00 0.00 93 1027.3
20260905232306 12 203 1.6 3.2 0.00 0.00 0.00 93 1027.2
20260905231804 12 202 1.6 3.2 0.00 0.00 0.00 93 1027.2
20260905231306 12 203 1.6 3.2 0.00 0.00 0.00 93 1027.2
20260905230804 12 203 1.6 3.2 0.00 0.00 0.00 93 1027.2
20260905230317 12 203 0.0 3.2 0.00 0.00 0.00 93 1027.2
20260905225802 12 203 0.0 1.6 0.00 0.00 0.00 92 1027.2
20260905225305 12 203 1.6 1.6 0.00 0.00 0.00 92 1027.2
20260905224806 12 203 0.0 1.6 0.00 0.00 0.00 92 1027.1
20260905224303 12 203 0.0 0.0 0.00 0.00 0.00 92 1027.2
20260905223803 12 203 0.0 0.0 0.00 0.00 0.00 92 1027.2
20260905223302 12 202 0.0 1.6 0.00 0.00 0.00 92 1027.2
20260905223251 12 203 0.0 1.6 0.00 0.00 0.00 92 1027.3
20260905222306 12 203 1.6 1.6 0.00 0.00 0.00 91 1027.1
20260905221804 12 203 0.0 1.6 0.00 0.00 0.00 91 1027.1
20260905221302 12 202 0.0 1.6 0.00 0.00 0.00 91 1027.1
20260905220803 13 203 0.0 3.2 0.00 0.00 0.00 91 1027.0
20260905220303 13 203 1.6 3.2 0.00 0.00 0.00 91 1027.1
20260905215802 13 203 1.6 3.2 0.00 0.00 0.00 91 1027.1
20260905215305 13 204 1.6 3.2 0.00 0.00 0.00 91 1027.0
20260905214802 13 199 0.0 3.2 0.00 0.00 0.00 91 1027.1
20260905214306 13 199 1.6 1.6 0.00 0.00 0.00 90 1027.0
20260905213804 13 199 0.0 1.6 0.00 0.00 0.00 90 1026.9
20260905213738 13 199 0.0 1.6 0.00 0.00 0.00 90 1027.0
20260905212804 13 199 1.6 3.2 0.00 0.00 0.00 90 1027.0
20260905212306 13 199 3.2 4.8 0.00 0.00 0.00 90 1026.8
20260905211803 13 188 1.6 4.8 0.00 0.00 0.00 90 1026.8
20260905211305 13 325 0.0 3.2 0.00 0.00 0.00 90 1026.8
20260905210802 13 325 0.0 3.2 0.00 0.00 0.00 89 1026.8
20260905210728 13 325 0.0 3.2 0.00 0.00 0.00 89 1026.7
20260905205801 13 325 0.0 1.6 0.00 0.00 0.00 88 1026.7
20260905205301 13 325 0.0 1.6 0.00 0.00 0.00 88 1026.8
20260905204757 13 325 0.0 1.6 0.00 0.00 0.00 88 1026.7
20260905204255 13 325 1.6 3.2 0.00 0.00 0.00 88 1026.7
20260905204233 13 325 1.6 4.8 0.00 0.00 0.00 88 1026.7
20260905203256 13 325 1.6 4.8 0.00 0.00 0.00 87 1026.7
20260905203157 14 258 1.6 3.2 0.00 0.00 0.00 87 1026.7
20260905202953 14 258 1.6 3.2 0.00 0.00 0.00 87 1026.6
20260905202236 14 258 0.0 3.2 0.00 0.00 0.00 86 1026.7
20260905201252 14 258 0.0 1.6 0.00 0.00 0.00 86 1026.6
20260905200752 14 258 0.0 1.6 0.00 0.00 0.00 85 1026.5
20260905200253 14 258 0.0 1.6 0.00 0.00 0.00 84 1026.5
20260905195751 15 258 0.0 1.6 0.00 0.00 0.00 84 1026.6
20260905195248 15 258 0.0 1.6 0.00 0.00 0.00 84 1026.5
20260905194749 15 258 0.0 1.6 0.00 0.00 0.00 83 1026.5
20260905194247 15 258 0.0 1.6 0.00 0.00 0.00 82 1026.5
20260905193749 15 258 0.0 1.6 0.00 0.00 0.00 82 1026.5
20260905193249 15 258 0.0 1.6 0.00 0.00 0.00 82 1026.5
20260905192748 15 258 0.0 1.6 0.00 0.00 0.00 81 1026.3
20260905192244 15 258 0.0 1.6 0.00 0.00 0.00 80 1026.3
20260905191744 15 258 0.0 1.6 0.00 0.00 0.00 79 1026.2
20260905191243 16 258 0.0 1.6 0.00 0.00 0.00 78 1026.4
20260905191218 16 258 0.0 1.6 0.00 0.00 0.00 77 1026.3
20260905190243 16 258 0.0 0.0 0.00 0.00 0.00 76 1026.1